sat.trackr.live / text

‹ back to catalog

HULIANWANG DIGUI-137

NORAD 67435 · 2026-007A

PAYLOAD ACTIVE UNKNOWN

§ Identity

Operator
Country
PRC
Launch date
2026-01-13
Launch site
WSC
Launch vehicle
Mass (kg)
RCS (m²)

External: N2YO · Heavens-Above · Gunter

§ Orbital elements

Epoch: 2026-09-20T22:25:29.441856Z

Period
108.33 min
Inclination
50.0066°
Eccentricity
0.0000392
Mean motion
13.29330630 rev/d
Perigee alt
1,149.0 km
Apogee alt
1,149.6 km
Semi-major
7,527.4 km
B*
3.3860e-5
RAAN
102.4768°
Arg perigee
26.6979°
Mean anomaly
333.3913°
Rev number
3,352

§ Raw data

HULIANWANG DIGUI-1371 67435U 26007A   26263.93436854 -.00000108  00000+0  33860-4 0  99942 67435  50.0066 102.4768 0000392  26.6979 333.3913 13.29330630 33523

JSON: /api/v1/satellites/67435 · /tle

For live sub-satellite position, see the globe view (requires WebGL).

§ Visibility from observer

Set your observer location to see the next 7 days of passes ≥ 10°. The values pass through the URL so the page stays shareable.

No JS? Fill the form by hand. The geolocation button needs JavaScript.